Home > Weather > Hannover > Past weeks

Flag for Germany Past Weather in Hannover, Lower Saxony, Germany — Yesterday and Last 2 Weeks

Now
72 °F

Passing clouds.


Feels Like: 75 °F
Forecast: 60 / 71 °F
Wind: 9 mph from Southwest

Location: Hannover

Current Time: Jul 29, 2016 at 8:06:57 PM

Latest Report: Jul 29, 2016 at 7:20 PM


Visibility: N/A

Pressure: 29.83 "Hg

Humidity: 69%

Dew Point: 61 °F

Location of HannoverLocation

Past Weather in Hannover — Graph

°F

Hannover Temperature Yesterday

Maximum temperature yesterday: 70 °F (at 3:20 PM)
Minimum temperature yesterday: 64 °F (at 12:20 AM)
Average temperature yesterday: 67 °F

High & Low Weather Summary for the Past Weeks

 TemperatureHumidityPressure
High88 °F (Jul 20, 3:20 PM)100% (Jul 14, 8:20 PM)30.24 "Hg (Jul 14, 8:20 PM)
Low52 °F (Jul 16, 2:20 AM)31% (Jul 20, 5:50 PM)29.83 "Hg (Jul 29, 5:20 PM)
Average68 °F75%30.06 "Hg
* Reported Jul 14 6:20 PM — Jul 29 6:50 PM, Hannover, Weather by CustomWeather, © 2016

Note: Actual official high and low records may vary slightly from our data, if they occured in-between our weather recording intervals... More about our weather records

Advertising

Hannover Weather History for the Previous 24 Hours

Scroll right to see more
 ConditionsComfort  
Time TempWeatherWind HumidityBarometerVisibility
6:50 PM
Fri, Jul 29
73 °FScattered clouds.9 mph61%29.83 "HgN/A
6:20 PM72 °FScattered clouds.10 mph69%29.83 "HgN/A
5:50 PM72 °FScattered clouds.9 mph69%29.83 "HgN/A
5:20 PM72 °FScattered clouds.10 mph69%29.83 "HgN/A
4:50 PM68 °FSprinkles. Partly sunny.8 mph78%29.86 "HgN/A
4:20 PM68 °FPartly sunny.8 mph78%29.86 "HgN/A
3:50 PM68 °FSprinkles. Broken clouds.15 mph78%29.86 "HgN/A
3:20 PM72 °FBroken clouds.9 mph65%29.86 "HgN/A
2:50 PM72 °FBroken clouds.9 mph61%29.86 "HgN/A
2:20 PM72 °FPartly sunny.9 mph65%29.86 "HgN/A
1:50 PM70 °FPartly sunny.10 mph69%29.86 "HgN/A
1:20 PM70 °FPartly sunny.8 mph73%29.89 "HgN/A
12:50 PM68 °FBroken clouds.8 mph73%29.89 "HgN/A
12:20 PM68 °FBroken clouds.12 mph73%29.89 "HgN/A
11:50 AM64 °FPartly sunny.8 mph83%29.89 "HgN/A
11:20 AM64 °FPartly sunny.12 mph83%29.89 "HgN/A
10:50 AM66 °FBroken clouds.12 mph73%29.89 "HgN/A
10:20 AM66 °FScattered clouds.9 mph78%29.89 "HgN/A
9:50 AM68 °FPartly sunny.9 mph78%29.89 "HgN/A
9:20 AM66 °FPartly sunny.9 mph78%29.89 "HgN/A
8:50 AM66 °FPartly sunny.8 mph78%29.89 "HgN/A
8:20 AM64 °FPartly sunny.7 mph83%29.89 "HgN/A
7:50 AM63 °FPartly sunny.7 mph88%29.89 "HgN/A
7:20 AM63 °FPartly sunny.7 mph88%29.89 "HgN/A
6:50 AM63 °FBroken clouds.6 mph94%29.89 "HgN/A
6:20 AM63 °FLight rain. Partly cloudy.6 mph88%29.89 "HgN/A
5:50 AM63 °FLight rain. Partly cloudy.7 mph94%29.89 "HgN/A
5:20 AM63 °FPassing clouds.6 mph94%29.89 "HgN/A
4:50 AM64 °FLight rain. Passing clouds.7 mph83%29.89 "HgN/A
4:20 AM64 °FPassing clouds.6 mph83%29.89 "HgN/A
3:50 AM64 °FClear.7 mph88%29.89 "Hg10 mi
3:20 AM64 °FPassing clouds.8 mph88%29.89 "HgN/A
2:50 AM64 °FPassing clouds.7 mph88%29.89 "HgN/A
2:20 AM64 °FPassing clouds.6 mph88%29.89 "HgN/A
1:50 AM64 °FPassing clouds.5 mph88%29.89 "HgN/A
1:20 AM64 °FPassing clouds.3 mph88%29.89 "HgN/A
12:50 AM64 °FClear.6 mph88%29.89 "Hg10 mi
12:20 AM64 °FClear.7 mph88%29.89 "Hg10 mi
11:50 PM
Thu, Jul 28
64 °FPassing clouds.6 mph88%29.89 "HgN/A
11:20 PM64 °FPassing clouds.3 mph88%29.89 "HgN/A
10:50 PM64 °FClear.5 mph88%29.89 "Hg10 mi
10:20 PM66 °FScattered showers. Passing clouds.6 mph83%29.89 "HgN/A
9:50 PM66 °FScattered showers. Broken clouds.6 mph83%29.92 "HgN/A
9:20 PM66 °FScattered showers. Partly sunny.5 mph83%29.92 "HgN/A
8:50 PM66 °FSprinkles. Partly sunny.6 mph83%29.92 "HgN/A
8:20 PM68 °FScattered showers. Broken clouds.7 mph83%29.92 "HgN/A
Weather by CustomWeather, © 2016

See weather overviewHow to use our weather pages